Location: Unspecified
(0.0000°N, 0.0000°E)
Time: 23:37:31
(UTC+00:00)

A-11 Canister half - Pass Details

Date: 16 December 2018
Orbit: 1515 x 1685 km, 47.2° (Epoch: 18 January)

Event Time Altitude Azimuth Distance (km) Brightness Sun altitude
Exits shadow 00:28:12 10° 171° (S) 3,859 11.3 -65.4°
Drops below altitude 10° 00:28:13 10° 171° (S) 3,863 11.3 -65.4°
Sets 00:31:50 0° 160° (SSE) 4,821 12.0 -65.1°
